Tracking 27126 objects as of 30-Mar-2023
HD Live streaming from Space Station
objects crossing your sky now

STARLINK-4715

Track STARLINK-4715 now!
10-day predictions
STARLINK-4715 is classified as:


NORAD ID: 53801
Int'l Code: 2022-111AE
Perigee: 546.1 km
Apogee: 547.6 km
Inclination: 53.2 °
Period: 95.4 minutes
Semi major axis: 6917 km
RCS: Unknown
Launch date: September 11, 2022
Source: United States (US)
Launch site: AIR FORCE EASTERN TEST RANGE (AFETR)
Your satellite tracking list
Your tracking list is empty




NASA's NSSDC Master Catalog

Two Line Element Set (TLE):
1 53801U 22111AE  23089.24775529 -.00000477  00000-0 -11896-4 0  9996
2 53801  53.2187  51.7985 0001051  77.2306 282.8803 15.08850950 30658
Source of the keplerian elements: AFSPC